Theta_e
346 350 353 353 353 350 345 341 340 341 341 341 344 344 346 345 346 352 357 357 355 354 353 351 351 349 347 346 346 346 346 346 344 344 346 348 349 348 349 350 350 350 349 349 349 349 349 349 349 350 350 350 350 347 345 344 345 346 345 344 345 346 345
347 350 352 353 353 351 347 344 342 341 341 342 342 342 344 345 347 355 357 356 356 356 354 352 351 349 348 346 346 347 347 346 344 345 347 347 348 349 349 348 346 346 348 348 348 349 349 349 349 350 351 350 349 345 342 343 343 344 345 344 345 346 345
350 352 353 353 353 353 351 349 347 344 341 341 341 340 342 344 349 356 357 357 357 356 353 353 351 349 348 346 346 346 347 346 344 344 346 347 348 348 347 345 343 346 349 348 347 348 348 349 350 351 350 350 349 345 340 340 341 342 344 344 344 346 345
350 353 354 353 354 354 353 351 349 348 344 341 340 338 339 343 349 355 358 358 357 356 354 353 352 350 348 347 346 347 347 346 345 345 346 346 346 344 342 341 343 346 347 347 347 348 348 350 350 350 349 349 349 346 341 340 340 340 342 342 343 345 344
351 352 353 352 353 353 353 353 350 348 345 341 339 339 339 341 346 351 354 356 357 357 353 351 352 351 350 349 349 350 351 350 350 350 350 346 343 341 341 341 341 341 344 347 348 348 348 349 349 349 349 347 347 347 343 342 342 342 342 340 342 345 345
351 352 351 351 349 350 351 351 347 344 343 342 340 341 341 341 344 346 348 352 355 354 351 349 351 350 350 350 351 351 351 351 351 351 350 347 341 339 339 339 337 339 343 346 347 347 348 348 347 349 351 349 347 349 348 346 346 347 345 341 342 346 347
353 351 350 348 348 349 348 346 345 342 342 343 341 341 341 342 345 344 344 351 354 352 348 349 349 349 349 349 349 349 349 350 349 348 346 345 343 342 340 338 337 341 344 346 346 347 348 348 348 347 349 351 350 351 350 348 348 349 349 345 343 345 348
353 353 350 348 348 348 344 342 342 341 341 343 344 344 342 342 346 346 343 346 352 352 350 349 348 348 349 350 349 349 349 347 345 344 345 345 344 343 339 336 339 343 344 345 346 347 347 349 350 348 348 351 352 352 351 349 348 349 351 349 346 345 347
355 354 353 351 349 346 342 340 341 341 341 342 344 345 344 342 344 348 346 344 347 350 350 350 348 345 347 349 349 349 349 346 343 343 343 342 339 337 335 335 340 343 345 345 346 346 347 347 350 350 349 349 350 351 351 350 348 349 351 350 348 348 349
355 355 355 354 351 346 341 339 340 340 343 345 346 347 347 344 341 343 346 345 345 348 350 349 349 347 347 348 350 351 349 345 343 344 344 340 337 335 335 336 338 341 345 346 346 346 346 347 348 348 348 348 348 348 349 350 350 349 349 349 348 347 348
352 352 354 355 354 353 351 348 345 343 343 346 348 350 350 350 347 345 346 345 344 347 349 347 346 348 350 350 351 352 348 342 343 344 341 340 339 337 337 336 336 338 342 346 347 347 347 348 348 348 348 349 348 348 348 349 350 351 349 350 350 348 348
347 349 350 350 352 353 353 353 351 349 347 346 346 348 348 350 354 353 350 349 348 348 349 347 345 348 350 351 352 351 345 340 342 342 339 338 338 336 336 335 335 336 339 343 346 348 349 349 349 348 348 348 348 351 351 349 349 350 349 350 351 351 350
344 346 346 347 348 347 346 346 347 348 347 348 348 347 346 348 353 355 353 351 351 350 350 350 349 349 349 350 351 348 342 335 337 342 342 339 337 336 337 337 336 336 338 341 344 346 348 350 349 348 349 349 348 350 352 350 348 348 347 348 349 350 350
343 343 343 344 345 346 346 343 341 342 342 344 346 345 345 345 347 350 351 352 352 352 352 352 351 351 349 351 351 348 341 335 336 342 344 342 342 342 340 341 340 339 338 339 342 344 346 348 349 349 349 350 349 350 350 349 348 348 348 347 347 348 349
341 342 341 342 342 344 346 346 344 341 339 339 340 340 342 342 344 346 347 348 350 350 350 351 352 352 350 350 351 348 344 341 341 344 346 345 344 343 342 340 340 339 337 338 340 342 344 346 347 349 349 349 349 349 349 349 348 347 348 348 348 348 347
339 339 339 340 341 341 342 345 347 343 339 337 336 336 338 340 342 344 344 345 348 348 347 346 348 351 350 350 350 349 347 347 347 348 349 348 345 344 343 341 340 340 339 339 341 341 343 345 346 349 349 348 348 349 349 347 346 345 345 347 347 347 347
337 336 337 338 338 338 337 340 345 345 340 335 335 334 335 337 339 341 342 344 345 345 345 344 344 345 347 348 350 350 349 348 349 350 350 350 348 347 345 343 342 343 343 343 343 343 344 345 347 349 348 347 348 349 348 347 345 344 344 345 345 346 346
334 334 333 333 333 332 330 330 337 344 340 333 332 332 330 333 337 339 340 342 344 344 344 343 342 342 344 345 347 350 351 350 349 350 350 350 350 349 348 347 346 346 346 346 345 345 345 345 347 348 347 347 347 348 348 346 345 345 345 345 345 346 346
332 330 329 328 329 328 325 323 327 336 338 333 330 329 328 328 332 336 339 341 342 343 344 342 340 340 345 348 348 350 352 352 351 351 350 350 350 349 350 349 349 348 348 348 346 345 345 346 346 347 347 347 347 347 347 347 346 345 345 346 346 346 347
331 330 328 329 330 330 329 328 326 326 329 329 327 326 327 327 327 330 335 339 340 340 342 342 340 338 340 346 351 352 351 351 351 351 351 351 351 351 351 350 350 349 349 348 347 346 345 345 346 346 346 346 346 346 347 347 347 346 345 346 346 346 347
332 331 331 332 332 331 331 330 328 325 324 324 324 325 327 326 325 326 329 335 339 340 339 341 342 341 340 340 344 349 350 350 349 349 350 351 350 349 350 350 350 348 347 347 347 348 347 346 346 345 346 346 346 346 346 346 346 346 345 345 345 345 346
332 331 332 332 331 331 331 329 329 328 327 325 326 328 328 325 324 324 327 333 336 337 339 341 341 343 343 342 341 343 346 348 348 347 346 347 347 347 348 350 350 347 346 346 347 347 348 348 347 346 346 346 346 346 346 345 345 345 345 345 344 345 346
329 329 330 330 329 330 331 330 330 330 330 329 329 331 332 329 324 323 329 334 334 333 335 340 341 342 342 343 343 342 343 345 347 348 346 344 344 346 347 349 348 347 346 346 346 347 347 347 348 347 347 347 346 347 346 346 345 345 344 344 344 345 346
328 328 328 329 329 329 329 330 330 330 330 331 331 332 333 332 327 325 330 334 333 332 336 338 338 339 340 340 341 342 343 344 345 348 347 345 345 346 347 348 347 345 345 347 348 348 348 348 349 348 349 348 347 347 347 346 346 346 344 344 345 345 346
329 329 328 328 328 329 329 330 330 330 330 330 330 331 332 333 330 328 331 334 333 333 337 336 332 333 336 338 338 339 341 344 345 346 345 344 344 343 344 347 347 347 347 347 348 348 347 348 349 349 349 348 347 347 347 347 347 346 345 345 345 344 345
329 329 329 329 329 329 329 330 330 330 330 329 330 330 331 333 333 330 331 334 333 334 336 334 328 326 330 334 337 338 339 341 344 346 347 346 345 344 343 343 345 348 348 348 347 347 347 347 348 348 348 348 347 346 346 346 346 345 344 344 344 344 345
329 329 329 329 330 330 330 330 330 331 330 330 331 332 331 331 333 332 332 331 332 335 335 332 326 325 327 330 333 335 338 340 342 344 344 344 345 346 346 345 346 348 347 346 347 348 348 347 346 347 347 347 347 347 347 346 346 345 346 345 345 345 345
329 330 329 329 330 330 330 330 330 330 331 331 330 331 331 331 331 333 333 331 331 333 334 329 326 326 328 329 330 331 334 338 342 343 342 340 340 342 344 345 347 348 347 345 345 346 347 347 346 346 347 346 346 346 346 345 345 346 346 345 345 345 344
329 329 328 328 328 328 329 329 329 330 331 330 328 327 328 329 330 331 332 331 330 330 329 328 327 327 328 328 328 328 330 336 340 343 342 341 339 339 341 343 344 346 347 346 346 345 346 347 347 346 346 347 346 345 344 345 344 345 344 344 344 344 343
329 328 327 326 326 326 328 328 328 329 328 326 325 324 323 324 326 328 329 329 328 327 327 327 328 329 329 329 329 328 329 333 337 340 342 341 339 338 340 341 342 345 346 346 346 346 347 349 348 345 344 345 347 346 345 344 344 343 343 342 342 343 343
327 326 326 325 325 326 328 328 328 328 327 325 323 324 323 323 323 325 326 326 325 325 326 327 328 329 330 330 329 328 328 331 334 338 341 341 340 339 340 341 343 345 346 346 346 346 346 347 348 347 345 345 347 347 346 345 343 342 342 341 339 340 340
326 326 326 326 326 327 328 329 329 329 329 329 328 328 327 326 326 327 327 325 324 323 325 326 328 329 329 329 330 330 328 329 332 335 338 340 340 340 340 340 342 345 346 347 346 346 345 345 345 346 346 346 346 346 346 346 344 344 344 342 339 336 336
326 326 327 327 328 328 329 329 330 330 331 331 331 331 330 328 328 327 327 327 327 326 326 325 326 328 329 330 332 332 329 328 331 333 335 336 338 339 340 339 338 340 343 345 345 345 345 344 345 346 346 345 343 343 344 346 347 346 346 344 341 340 339
326 327 327 328 329 329 330 330 330 330 330 330 330 330 330 329 329 327 327 328 329 329 328 325 324 326 328 329 331 331 329 329 331 333 335 336 335 336 339 339 336 335 337 340 342 343 343 343 344 345 345 344 342 341 342 343 344 346 345 343 342 342 342
327 327 328 329 329 329 329 329 329 329 329 329 329 330 330 330 329 328 328 328 329 329 330 329 327 326 326 327 328 330 329 330 331 332 336 339 337 335 336 337 336 334 332 332 334 336 339 342 343 343 344 343 341 342 342 341 341 342 342 342 340 339 339
327 328 328 328 328 328 328 328 329 329 329 329 329 329 329 329 329 329 330 330 329 329 330 330 329 329 328 328 329 330 331 332 332 332 334 337 337 334 333 334 334 333 332 331 329 329 330 334 338 341 343 342 341 341 342 342 341 340 340 341 340 339 338
327 328 328 327 327 328 328 328 328 328 329 329 329 329 329 329 329 329 329 329 329 329 330 330 330 330 330 330 330 330 331 331 332 332 332 333 333 333 333 333 334 334 333 332 332 330 329 329 330 333 337 340 340 339 339 339 339 338 339 341 342 341 339
327 327 327 327 327 327 328 328 328 328 329 329 329 329 330 330 329 329 330 329 329 329 330 330 331 331 331 331 331 330 330 329 329 329 329 330 331 332 333 333 334 335 334 333 333 332 330 329 328 328 330 334 337 338 337 337 337 337 338 341 343 342 339
Wind_Speed
11 12 12 11 11 11 11 11 11 10 9 9 7 5 3 0 3 3 4 6 9 12 14 14 14 14 12 11 12 12 13 13 12 11 12 13 14 15 16 15 15 13 10 7 7 8 8 9 12 13 15 18 19 19 19 19 20 19 19 20 18 17 17
12 13 12 11 11 11 12 12 12 12 11 10 8 6 3 1 3 4 5 7 9 9 10 10 12 13 12 11 11 11 12 12 11 10 10 11 11 12 13 13 14 14 13 11 10 9 8 8 10 12 14 17 19 20 19 18 19 19 19 20 19 17 17
12 13 12 11 11 10 10 11 11 11 11 10 8 6 4 2 3 4 5 6 6 7 8 9 10 12 11 10 10 11 11 10 10 9 9 8 8 9 9 10 11 12 13 13 12 11 9 7 9 11 13 15 18 20 19 18 19 19 18 19 20 19 18
12 12 11 11 11 9 9 10 9 9 9 8 7 6 5 3 2 3 4 5 6 7 8 8 9 10 10 10 10 9 8 8 8 8 8 8 8 8 7 8 10 11 13 14 14 13 11 9 9 10 12 14 16 18 18 18 19 19 19 20 20 20 20
11 11 11 10 10 9 9 8 7 7 6 6 6 5 6 4 2 2 3 4 5 6 8 8 7 8 9 9 9 7 6 6 6 7 7 8 9 9 8 9 10 11 13 13 13 14 13 12 10 9 10 13 16 17 17 18 18 18 20 20 20 20 21
10 10 11 10 10 9 9 7 6 5 3 3 4 5 5 5 4 4 3 3 4 5 7 8 8 8 8 8 7 6 5 4 5 7 8 9 10 11 10 9 9 12 13 13 13 13 13 13 12 11 11 12 13 15 16 17 17 17 19 20 20 20 19
10 11 10 10 10 10 9 8 6 4 3 3 3 4 5 5 4 5 5 3 4 5 5 6 8 9 9 8 7 7 5 6 7 9 10 10 11 11 10 9 11 14 15 15 15 14 14 13 13 13 13 12 12 13 15 16 17 17 18 19 20 21 19
11 10 10 10 10 10 11 10 8 6 4 3 3 3 4 5 4 5 7 5 3 5 6 5 6 7 9 8 7 7 7 9 10 11 10 10 11 11 10 11 13 15 17 17 16 16 16 14 12 12 12 12 13 13 14 16 18 17 17 18 19 20 19
14 13 11 11 11 12 12 11 10 9 7 4 3 3 4 6 5 4 6 6 4 4 4 5 4 5 6 6 5 4 6 10 12 12 11 10 11 12 12 13 13 16 18 19 18 17 17 16 14 14 13 13 14 15 15 16 17 17 17 18 19 19 18
17 16 15 14 14 15 14 13 13 12 10 8 6 6 6 7 8 7 6 6 6 5 4 4 3 3 4 4 3 2 6 11 12 12 11 11 12 13 14 15 15 17 18 18 19 18 18 18 17 16 15 14 15 16 17 17 17 17 18 19 19 20 19
18 18 17 17 17 17 17 16 15 13 12 10 8 8 8 8 9 9 8 8 8 6 4 5 4 3 3 3 3 5 9 12 12 10 10 11 13 14 15 17 17 17 18 18 19 19 18 18 18 18 18 16 15 15 16 17 17 17 18 18 18 19 20
18 18 18 18 19 19 19 18 17 16 14 13 10 8 7 8 9 9 8 8 8 8 7 6 5 4 2 3 6 8 10 12 12 10 10 11 14 15 16 17 18 18 18 18 18 18 18 18 19 19 19 18 16 15 15 17 18 19 19 19 18 18 19
18 18 18 18 19 20 20 20 19 17 16 16 15 13 10 9 8 8 7 7 6 6 6 6 5 4 3 3 7 8 8 11 12 11 12 13 15 16 18 19 20 19 20 20 20 19 19 19 19 19 19 18 17 16 17 18 19 19 20 20 20 20 20
17 18 19 19 19 20 20 21 21 19 18 18 17 17 16 14 11 10 8 7 6 5 5 5 4 4 3 4 8 9 9 12 12 11 12 14 15 18 20 22 21 20 19 20 20 20 20 19 18 19 19 19 18 18 19 20 20 20 21 21 22 21 21
15 16 17 18 18 18 18 19 19 20 21 21 20 20 20 19 16 13 12 10 9 8 6 4 4 4 4 5 9 11 12 13 12 10 11 13 16 19 21 22 22 20 20 20 20 21 21 20 19 19 19 20 20 20 21 21 22 23 22 22 22 22 22
13 13 14 15 16 16 17 17 17 19 22 23 24 24 24 23 21 17 16 14 12 10 9 6 3 4 5 6 9 11 13 13 12 11 12 13 15 17 19 19 20 20 20 20 20 20 20 20 19 19 19 20 20 20 21 23 25 25 24 23 22 22 22
11 11 12 14 14 15 16 16 16 17 20 23 25 25 26 25 23 21 19 18 15 11 10 9 6 6 6 7 9 10 12 13 14 14 14 15 15 15 16 17 17 18 18 18 18 19 19 19 19 19 20 20 20 20 21 24 25 25 24 23 23 23 22
10 10 11 12 14 15 15 16 16 16 18 21 24 25 25 25 24 23 20 18 17 14 11 10 10 9 8 8 9 10 11 13 15 15 16 16 16 15 16 16 16 17 17 17 17 17 17 18 18 18 19 20 20 21 23 24 24 23 22 22 23 23 22
8 9 10 11 12 13 13 14 15 15 16 20 23 25 26 25 24 23 21 19 17 15 13 12 11 11 10 9 8 9 11 12 14 15 15 15 16 16 16 16 16 16 16 16 16 15 16 16 16 17 19 19 20 21 22 23 23 22 21 21 21 22 22
6 7 8 9 9 10 10 11 12 13 15 17 21 24 26 26 25 22 21 20 18 16 15 13 12 12 12 10 9 9 10 11 13 13 13 13 14 16 17 16 15 15 15 15 15 15 15 16 16 17 18 19 20 20 21 21 21 20 19 19 20 21 22
5 6 7 8 9 9 11 11 12 13 14 15 18 21 24 27 27 24 21 20 19 17 15 14 13 12 12 11 10 10 11 12 13 13 13 13 14 16 18 17 16 15 15 15 15 16 16 17 18 18 18 18 19 19 20 20 20 19 18 18 19 19 21
8 8 8 9 10 11 12 12 13 14 15 15 16 18 21 24 26 26 22 19 19 18 16 14 13 12 11 11 11 11 11 12 14 14 15 16 16 16 18 17 16 16 16 16 16 16 17 18 19 19 18 18 19 19 19 19 20 19 18 19 19 19 21
10 10 10 11 12 12 13 13 14 15 16 16 16 16 18 20 24 25 21 17 18 18 16 14 13 13 12 11 10 11 11 12 13 13 14 17 18 17 16 17 16 15 16 18 18 18 17 18 19 19 19 19 19 19 19 20 20 20 19 19 19 20 22
11 12 12 13 14 14 14 14 15 16 17 17 17 17 17 19 22 23 20 16 17 18 16 15 14 13 13 12 11 11 11 11 12 12 13 14 17 18 17 17 17 16 17 18 19 18 17 17 18 18 18 19 19 20 20 20 21 21 20 19 20 21 22
12 13 13 14 14 14 15 16 17 17 17 17 17 17 17 18 20 22 19 16 17 17 15 15 15 15 14 13 12 12 12 12 12 12 13 13 14 16 17 18 19 18 18 18 18 18 17 17 17 18 18 20 20 20 21 21 21 22 21 20 21 22 23
13 14 14 15 14 14 15 16 16 16 16 17 18 18 18 18 19 22 21 19 18 17 15 16 17 16 15 14 13 13 13 14 14 13 14 15 14 15 17 18 19 19 19 19 18 18 18 17 18 18 18 19 20 20 21 22 22 22 22 21 21 22 23
12 13 14 15 15 15 16 15 15 16 17 18 18 18 19 19 20 21 22 22 20 17 16 18 19 18 16 15 15 14 13 14 16 15 15 16 16 17 18 18 18 18 19 19 18 18 18 18 19 19 18 18 18 18 19 19 20 20 20 21 21 22 22
13 13 14 15 16 16 16 16 17 18 18 19 20 20 21 22 22 22 22 24 23 20 19 22 22 19 17 16 15 15 15 15 16 17 16 16 16 17 19 20 20 19 18 18 18 18 18 18 19 18 18 18 18 18 18 18 18 19 19 20 21 21 22
14 15 16 17 17 16 16 17 18 18 20 22 24 24 24 24 24 24 24 25 25 23 23 24 22 19 19 18 17 16 16 16 17 17 15 15 16 16 17 18 20 21 20 18 18 19 19 19 19 19 18 18 17 18 17 18 18 19 20 21 21 21 22
15 17 18 19 19 18 18 18 19 20 22 24 26 26 26 27 26 26 25 26 26 26 24 23 22 20 19 19 18 17 17 17 17 17 15 15 15 16 15 15 17 20 22 21 19 19 18 18 19 19 19 18 17 16 16 17 17 18 20 21 21 21 22
16 18 18 19 19 19 19 20 20 22 25 26 27 27 27 27 27 27 27 27 27 27 25 23 22 21 20 20 20 19 19 19 19 18 17 15 15 14 14 14 13 16 21 21 20 20 19 19 18 18 19 19 17 16 15 15 16 17 19 20 20 21 22
18 19 19 20 20 20 20 21 22 22 24 25 26 26 26 26 26 26 27 27 27 27 25 24 23 22 22 21 21 20 20 20 20 20 19 17 15 13 13 12 11 12 16 19 20 20 20 20 19 18 19 20 19 18 16 15 16 16 17 18 20 21 22
20 21 21 22 22 22 21 21 21 22 23 24 25 25 25 25 25 25 26 25 25 25 25 25 24 23 23 22 21 21 21 21 22 22 21 20 18 15 13 12 12 11 11 14 16 18 19 18 17 17 17 18 18 18 18 17 16 16 16 18 19 19 19
22 23 24 24 23 22 22 22 22 23 24 25 25 25 25 25 24 25 25 24 23 23 23 24 25 25 24 23 23 23 23 22 22 23 22 21 21 19 15 13 12 12 11 11 12 14 17 18 17 17 17 17 17 17 18 19 18 16 16 16 17 15 14
23 24 24 23 23 22 22 23 23 24 24 25 24 24 24 24 23 24 24 24 22 21 21 22 23 24 24 24 24 25 25 23 22 21 19 18 20 21 20 17 15 13 12 11 10 11 12 14 17 18 18 18 18 17 18 20 20 18 17 17 17 17 15
23 23 23 23 23 23 23 23 24 24 25 25 24 24 24 23 22 22 23 24 23 21 20 21 21 22 22 23 23 25 25 23 21 20 20 19 20 22 23 22 20 17 15 13 12 11 10 11 13 15 17 20 21 20 20 21 21 21 21 21 21 20 19
22 23 23 24 24 24 24 24 24 24 24 24 23 23 24 23 22 22 22 23 22 21 20 20 21 21 20 21 22 24 25 25 23 22 22 23 23 23 23 23 22 21 20 18 17 15 13 12 12 13 14 18 20 21 22 23 23 24 24 24 23 22 21
22 22 22 23 23 24 24 24 24 23 23 23 22 22 23 23 23 23 22 22 22 21 21 21 21 21 20 20 21 23 26 27 27 26 25 25 24 24 24 24 23 22 21 20 20 20 19 17 16 14 13 15 17 18 20 21 22 24 25 25 25 24 23
Wind_Direction
72 70 70 75 80 84 84 79 74 69 63 61 60 61 64 248 238 234 228 223 224 231 238 241 243 246 249 254 255 252 254 264 276 282 283 283 286 293 293 289 289 288 279 271 257 237 222 203 194 193 194 197 199 201 203 202 202 202 203 202 202 204 203
69 69 70 73 77 80 80 76 71 65 60 60 57 49 38 303 238 218 220 224 223 230 240 242 241 244 248 252 254 250 247 250 259 267 273 281 287 292 298 300 298 297 293 284 270 256 239 210 195 191 193 198 201 205 207 206 206 206 207 207 205 207 208
68 70 71 72 72 74 77 76 72 65 58 57 54 41 28 347 244 225 229 233 230 232 238 239 241 244 244 251 258 256 251 251 256 260 263 269 275 284 300 305 297 297 296 284 270 263 249 218 199 193 193 197 202 208 211 210 210 209 211 213 209 210 212
70 73 74 73 71 69 70 71 72 71 63 53 47 34 28 22 268 246 242 242 243 241 237 236 244 251 247 246 253 258 260 260 257 255 254 252 256 269 286 288 285 290 289 277 266 260 251 232 214 201 194 193 198 207 211 212 214 213 215 219 216 215 218
71 74 74 71 68 64 64 67 70 76 70 49 34 25 27 30 343 286 260 243 239 238 238 237 241 249 247 243 250 263 279 284 275 266 259 251 250 257 264 268 273 275 272 266 260 257 252 243 231 213 200 196 196 203 209 211 213 214 218 221 220 219 221
65 68 70 68 65 61 61 65 66 64 58 34 16 16 26 28 4 338 313 267 255 248 241 241 243 244 243 242 246 259 278 283 273 265 258 252 252 258 261 260 256 255 255 251 248 249 249 244 234 220 207 203 200 202 207 209 210 212 218 221 220 218 220
59 62 66 67 66 61 55 52 47 32 7 348 346 3 24 30 17 357 352 318 279 290 283 260 253 252 250 247 241 243 250 250 246 250 252 253 256 260 262 255 245 243 243 239 237 237 236 235 231 224 212 204 204 205 207 209 207 208 215 220 220 218 218
56 58 61 63 64 58 48 40 32 15 351 328 332 359 18 25 25 0 355 354 302 296 310 300 277 265 259 254 247 239 236 241 247 251 249 246 249 250 250 248 243 238 236 234 233 231 230 227 227 227 219 207 207 207 208 213 211 207 212 219 221 221 219
56 56 55 57 61 58 50 41 32 22 10 349 342 7 13 8 11 0 348 350 339 312 310 311 301 283 267 256 255 248 239 245 250 250 241 237 243 243 236 234 236 237 236 234 232 229 229 227 223 225 225 219 216 211 210 216 215 210 210 215 219 219 217
54 54 52 53 58 59 54 49 43 37 31 23 13 9 5 356 353 353 346 344 342 331 307 293 292 283 262 247 238 229 244 251 252 249 239 231 237 241 235 229 230 235 237 236 234 231 229 229 224 224 226 225 223 221 219 219 218 217 216 218 221 222 218
52 51 49 48 50 51 48 44 41 38 34 33 28 16 5 354 346 343 341 342 342 339 322 310 305 279 235 214 199 214 241 252 255 254 248 236 237 241 241 237 233 235 239 240 238 235 232 230 228 228 229 226 223 223 225 224 221 221 221 220 223 225 224
52 50 47 46 47 46 45 40 36 32 27 25 23 16 7 357 347 339 334 334 335 332 326 327 326 306 252 189 197 220 241 254 256 250 241 236 236 236 236 237 235 237 242 244 243 239 236 234 232 231 233 231 225 218 221 226 225 224 225 222 222 227 228
55 51 46 45 46 46 44 40 35 31 25 21 17 11 5 357 346 337 331 326 325 321 313 317 323 310 287 212 210 223 248 266 263 245 233 231 232 231 231 234 235 237 240 243 243 241 237 236 234 233 236 238 233 224 223 227 227 227 227 224 224 226 229
52 47 42 39 39 40 38 35 32 28 22 17 13 9 5 358 349 341 339 334 326 319 302 291 293 293 280 222 214 221 248 264 255 232 224 225 225 228 231 232 232 234 238 241 242 241 239 237 237 236 238 239 238 234 231 231 230 230 229 228 227 227 228
38 36 34 32 31 30 29 28 26 24 20 15 9 6 5 2 356 349 349 346 333 326 317 287 258 266 264 228 216 217 228 240 238 224 221 221 219 222 226 228 229 230 234 238 241 242 241 240 238 238 238 239 238 238 236 235 233 232 231 230 229 229 230
27 28 28 28 26 24 24 21 18 16 16 14 9 6 5 5 3 356 352 350 345 335 325 311 262 242 249 239 228 220 217 222 230 231 231 230 226 223 224 227 228 231 235 238 240 241 241 240 237 235 235 237 237 236 236 235 234 234 233 231 232 232 233
31 31 27 25 22 21 21 19 13 9 9 9 9 7 5 4 4 2 357 352 349 341 328 318 298 260 244 239 236 227 220 223 229 231 234 237 237 232 229 229 229 232 235 237 238 239 239 238 235 232 233 235 234 233 235 237 235 234 234 233 235 236 236
38 38 31 27 23 23 24 22 14 5 1 3 5 3 2 1 0 1 359 355 350 343 332 323 311 289 264 249 246 242 234 232 235 236 235 237 239 238 236 234 233 235 236 237 238 238 238 237 235 234 234 235 235 235 239 242 241 238 236 235 235 235 235
41 43 39 34 28 25 25 23 14 4 358 359 358 354 354 356 357 356 354 354 353 348 337 327 318 306 289 270 259 256 251 247 247 246 242 241 243 244 241 238 239 240 240 242 241 238 238 236 235 237 237 237 238 239 241 246 246 243 239 237 235 234 235
37 39 35 25 16 10 9 7 2 0 1 359 353 347 344 346 350 352 351 349 350 350 344 333 324 316 303 289 274 264 263 262 258 254 251 247 246 248 246 242 243 245 243 244 242 238 237 236 234 237 239 240 241 242 244 248 250 248 241 237 236 235 237
16 12 5 357 351 347 348 346 343 349 355 354 348 342 337 335 339 346 349 346 345 348 348 341 331 320 309 299 290 279 274 272 268 263 259 251 245 248 249 245 245 247 245 243 242 239 238 238 237 237 238 239 240 242 244 247 250 249 241 236 236 236 237
356 349 343 340 335 333 332 331 332 336 338 338 336 334 329 325 326 334 341 343 341 342 344 342 335 327 316 305 297 290 283 280 277 272 267 260 251 247 247 246 247 250 248 244 243 242 240 241 241 241 239 239 238 239 240 244 248 247 241 236 234 234 237
344 338 335 331 326 325 321 320 323 323 322 322 321 322 322 317 317 325 333 336 336 337 340 338 332 327 322 315 306 296 288 285 284 280 274 268 262 255 250 248 248 251 252 249 245 243 243 244 245 244 241 240 238 238 240 242 246 247 244 240 237 236 239
332 329 328 325 322 321 319 318 318 315 314 313 311 312 315 312 313 321 328 330 330 331 334 333 330 325 320 318 315 306 297 290 285 284 281 275 271 268 262 256 253 252 250 249 246 245 245 246 247 245 243 241 239 240 242 243 245 247 246 242 239 239 242
324 323 322 321 320 318 317 316 315 313 313 311 310 310 312 310 311 316 321 324 325 326 325 325 326 323 317 314 312 310 307 300 290 281 277 272 270 269 266 264 263 259 251 247 247 248 247 246 246 245 244 243 242 242 243 244 245 247 246 242 239 241 243
321 321 321 321 321 320 319 315 313 313 312 311 310 310 310 310 309 311 315 317 320 320 317 317 320 318 314 310 306 305 309 307 300 289 277 269 264 262 261 260 262 261 256 251 249 248 247 246 246 246 246 248 248 247 245 245 246 248 247 244 242 243 245
317 318 319 320 320 320 320 316 313 312 310 310 309 307 307 307 307 308 310 311 313 313 310 313 317 315 309 306 302 301 304 304 301 294 286 279 272 263 258 256 255 254 253 253 251 248 247 246 247 248 248 249 250 249 248 247 247 248 247 245 243 244 246
318 318 318 318 318 318 316 313 312 309 306 307 307 304 303 302 302 303 304 304 307 307 305 308 314 312 306 302 299 299 300 300 298 295 294 294 287 275 265 259 255 253 251 252 253 250 248 246 246 249 250 250 249 248 248 249 248 246 247 247 245 245 246
318 319 319 318 317 316 313 311 309 306 304 305 305 304 303 301 299 299 298 298 300 301 301 304 308 308 304 300 297 295 295 296 296 295 296 301 300 292 280 268 260 255 251 249 249 249 248 245 245 247 250 251 250 250 250 251 251 249 249 251 251 250 250
315 316 317 316 315 315 311 308 306 303 302 305 306 306 305 303 301 298 297 296 297 298 299 300 302 303 301 298 296 292 289 290 292 292 293 300 306 303 292 280 267 256 249 247 247 247 247 246 246 247 250 250 250 251 251 252 253 254 255 256 256 255 255
312 312 311 311 311 310 307 305 303 301 302 305 306 306 305 304 301 299 297 296 296 296 296 296 296 296 295 295 295 291 287 285 286 287 289 295 305 309 301 292 278 259 248 246 248 248 247 246 244 245 247 247 247 249 250 250 252 255 257 258 257 255 254
309 309 309 309 308 307 305 304 301 300 300 303 304 304 303 301 299 297 297 297 296 295 294 292 290 290 290 292 292 291 288 285 283 283 283 285 294 302 302 300 294 273 256 250 249 250 251 251 250 249 249 250 251 251 251 250 250 251 255 259 259 255 253
310 310 309 309 308 308 307 305 303 301 301 302 302 302 301 299 298 296 296 297 296 295 293 291 287 285 286 287 288 288 286 284 284 284 283 281 282 285 289 294 297 290 276 263 256 254 254 255 256 255 254 255 256 255 254 252 251 251 254 259 261 257 254
310 309 309 309 309 308 307 304 303 302 301 301 301 301 300 298 297 297 296 296 295 295 294 292 288 284 282 281 282 283 283 280 280 283 284 282 280 278 279 283 288 292 290 279 268 261 258 255 254 253 255 257 258 258 257 255 253 253 255 259 262 260 254
307 305 306 307 307 306 305 303 302 302 300 299 299 299 299 297 296 296 297 297 296 295 293 292 290 287 283 280 278 278 279 278 277 279 280 280 279 279 277 275 276 281 285 285 283 276 266 259 255 253 254 256 256 255 256 256 255 257 261 266 271 272 265
305 304 305 306 306 306 305 304 303 302 300 298 297 297 297 297 297 297 298 299 298 296 292 291 289 287 284 281 277 275 275 275 275 275 274 274 276 279 278 276 274 273 272 274 279 282 278 270 262 256 252 254 256 255 254 255 256 259 261 263 266 269 269
305 306 307 308 308 307 307 305 303 301 300 300 300 298 298 298 298 298 298 298 298 297 293 289 287 284 282 279 277 274 273 272 273 272 271 271 272 274 275 276 277 276 273 271 271 274 278 280 277 268 258 255 257 257 256 257 259 259 259 258 257 257 259
306 306 307 307 307 306 306 305 304 304 303 303 302 300 299 299 298 297 298 298 298 297 294 288 284 281 279 276 275 273 273 273 273 273 272 270 270 270 272 274 276 278 278 277 275 273 274 276 279 278 272 265 263 261 259 259 259 258 257 256 253 251 252